Joliet, IL

9:28 PM CDT on April 27, 2015 (GMT -0500)
Warwick Subdivision, Joliet, IL | | Change Station
CLOSE
Current Station
Personal Weather Station
Location: Joliet, IL
Elevation: 591 ft
Nearby Weather Stations

Elev 591 ft 41.55 °N, 88.15 °W | Updated 2 minutes ago

Clear
Clear
46.2 °F
Feels Like 46 °F
N
2.0
Wind Variable Wind from ENE
Gusts 4.0 mph

Today
High -- | Low -- °F
--% Chance of Precip.
Yesterday
High -- | Low -- °F
Precip. -- in
5:55 AM 7:45 PM
Waxing Gibbous, 70% visible
Pressure 30.12 in
Visibility 10.0 miles
Clouds Clear
Windchill 46 °F
Dew Point 33 °F
Humidity 60%
Rainfall 0.03 in
Snow Depth Not available.
UV 0 out of 12
Pollen 10.00 out of 12
Air Quality Not available.
Flu Activity Regional
METAR KJOT 280215Z AUTO 05004KT 10SM CLR 08/02 A3012 RMK AO2 T00800018

More Conditions Fewer Conditions

Pressure 30.12 in
Visibility 10.0 miles
Clouds Clear
Windchill 46 °F
Dew Point 33 °F
Humidity 60%
Rainfall 0.03 in
Snow Depth Not available.
UV 0 out of 12
Pollen 10.00 out of 12
Air Quality Not available.
Flu Activity Regional
METAR KJOT 280215Z AUTO 05004KT 10SM CLR 08/02 A3012 RMK AO2 T00800018

More Conditions Fewer Conditions

10-Day Weather Forecast

Almanac

Astronomy

Apr. 27, 2015 Rise Set
Actual Time
Civil Twilight
Nautical Twilight
Astronomical Twilight
Moon
Length of Visible Light
Length of Day
Tomorrow will be .
, % of the Moon is Illuminated

Today's Extremes

State Highs State Lows

Community

WunderPhotos

Upload Photos

1,817,509 photos uploaded!

WunderBlogs® & News

Nearby

Air Quality

  Air Quality AQ Index Pollutant
Not available.

Snow Depth

Station Depth Elevation

Earthquake Activity

City Distance Mag. Time & Date
Minimum magnitude displayed is 2.5.

Coastal Water Temperatures

Place Temperature

Stations

Nearby Weather Stations

Station Location Temp. Windchill Dew Point Humidity Wind Precip. Elev Updated Type